Voltar ao catálogo

SDGSAT 1

AtivoCiênciaSSO
NORAD 49387·PAYLOAD·🇨🇳 China

Lançado Nov 5, 2021 de Taiyuan Satellite Launch Center

Loading…

Próximas Passagens (próximas 24 horas)

TLE

AtualizadoSource: Space-Track

Época: Sep 14, 2026, 14:30 UTC

1 49387U 21100A   26257.60481480  .00001549  00000-0  76039-4 0  9996
2 49387  97.2549 301.1154 0008481 328.1895  31.8827 15.19478681269490

Acompanhe SDGSAT 1 em tempo real com AllMySat

Download on the App Store